Wind_Speed
46 49 52 55 58 62 62 60 58 57 56 54 53 53 53 55 56 57 59 61 63 65 68 71 75 78 81 81 82 81 80 78 76 74 72 70 67 63 59 55 51 48 44 42 41 39 39 42 45 42 38 36 37 38 38 38 39 39 40 39 39 38 38
48 52 56 59 61 60 58 57 56 56 55 53 53 53 55 57 59 61 63 65 68 71 74 77 80 83 83 83 83 81 79 77 75 73 71 68 64 61 58 55 52 49 47 44 41 40 38 39 42 45 44 40 39 39 38 40 41 40 41 41 40 39 38
52 55 58 59 57 55 55 55 55 54 54 54 54 56 58 60 62 64 67 70 73 77 80 82 84 85 84 83 82 80 78 76 74 72 69 66 62 59 57 55 53 51 49 47 44 42 40 38 39 42 45 45 44 42 40 40 42 43 43 42 42 41 39
55 56 56 55 54 54 55 55 55 55 55 56 57 59 61 63 65 68 72 75 79 82 84 85 86 85 84 82 81 79 77 75 73 70 67 64 61 59 57 55 54 52 51 49 47 45 43 40 39 40 42 44 46 47 45 43 43 44 44 44 43 43 42
56 56 56 56 55 55 55 55 56 57 57 59 61 62 65 67 70 73 77 80 82 84 86 86 85 84 82 81 79 78 76 74 71 68 66 64 61 59 58 56 55 54 52 51 49 48 46 44 42 41 42 42 44 47 48 47 46 45 44 44 44 45 44
56 55 55 55 55 55 55 56 57 59 61 62 65 67 69 72 75 78 81 83 84 85 86 86 84 82 81 80 78 77 75 72 70 67 65 63 62 60 59 58 56 55 53 52 51 49 48 46 45 44 43 43 44 46 48 49 50 49 47 45 44 45 45
56 55 55 55 56 57 58 60 62 64 66 67 70 72 74 76 79 81 83 84 85 85 85 84 82 81 80 78 77 75 73 70 68 66 64 63 62 61 59 58 57 56 55 53 52 51 49 48 46 45 45 44 44 46 48 50 51 51 50 48 46 46 46
59 59 59 59 60 62 64 66 68 69 70 72 74 75 78 80 82 83 84 84 84 84 83 81 80 79 78 77 75 73 70 68 66 65 64 63 62 61 60 59 58 57 57 55 54 53 51 50 48 46 45 45 45 46 48 50 52 52 52 51 49 47 48
64 64 64 65 66 67 69 70 71 72 74 75 77 79 81 82 83 84 84 83 82 81 80 79 78 77 76 74 72 70 68 66 65 64 64 63 62 61 61 60 60 59 58 57 56 55 54 52 50 48 46 45 45 46 48 50 52 53 52 53 53 50 49
69 69 69 69 70 71 73 73 74 75 77 78 80 82 83 83 84 83 82 81 80 79 78 77 76 75 74 72 70 68 67 66 65 65 64 64 63 63 62 61 61 60 59 58 57 56 55 54 53 51 50 48 46 46 47 49 52 55 54 53 55 55 52
72 72 73 74 75 75 76 77 78 79 80 82 83 83 83 83 82 81 80 79 78 77 76 76 75 74 72 70 68 67 66 66 66 65 65 65 64 64 63 62 62 61 60 59 58 57 57 56 55 54 53 51 50 48 47 47 50 55 56 54 55 56 56
75 75 76 77 77 78 78 79 80 81 82 82 82 82 82 81 80 79 78 78 77 76 76 75 74 72 71 69 68 67 66 66 66 66 66 65 65 64 64 63 63 62 61 60 59 59 58 57 56 56 55 54 52 51 50 48 49 54 57 56 56 57 58
75 76 77 78 78 79 80 80 81 81 81 81 81 80 80 79 78 78 77 77 76 76 75 74 72 71 70 69 67 67 67 67 67 67 66 65 65 64 64 63 63 62 62 61 60 60 59 58 58 57 56 56 54 53 52 50 49 53 57 57 57 59 60
75 76 77 78 78 79 79 80 80 80 80 79 79 79 78 78 77 77 76 76 76 75 73 73 72 71 70 68 68 67 68 68 68 68 67 66 65 64 64 64 64 63 62 62 61 60 60 59 59 58 57 57 56 55 53 52 50 51 56 59 59 60 62
76 76 77 77 78 78 79 79 79 79 79 78 78 78 77 76 76 76 76 75 74 73 73 72 72 71 70 69 68 68 69 70 69 68 67 66 65 65 65 65 65 65 64 63 62 61 60 60 59 59 58 58 58 57 55 54 52 50 53 58 60 60 62
75 76 77 77 77 78 78 78 78 78 78 77 76 76 75 75 75 75 74 73 73 73 73 73 72 71 70 69 69 69 70 70 69 68 67 66 66 65 66 66 66 65 65 64 63 61 60 60 60 59 60 59 59 59 58 56 55 53 53 56 60 61 62
75 76 76 76 77 77 77 77 76 76 75 75 74 74 74 74 74 73 73 73 73 73 73 73 72 72 71 70 70 70 70 70 69 67 66 66 66 66 66 66 65 64 64 63 62 61 60 60 60 60 60 60 60 60 60 59 57 56 55 56 59 61 62
73 74 75 75 75 74 74 74 73 73 73 73 73 73 73 73 73 73 73 73 73 73 73 73 73 73 72 71 71 72 72 71 70 68 67 67 67 66 66 65 64 63 63 62 62 61 61 61 61 61 61 61 61 60 60 59 58 57 56 56 57 59 61
70 71 71 71 71 71 71 71 72 72 72 72 72 72 72 72 72 73 73 74 74 74 74 74 74 74 73 73 73 74 74 73 71 70 69 68 67 66 65 63 63 63 63 63 63 62 62 62 62 62 61 61 60 60 59 58 58 58 57 57 57 58 60
68 68 69 69 69 70 70 70 71 71 71 71 71 71 72 72 73 73 73 73 74 75 75 76 75 74 74 74 75 76 75 74 72 70 69 69 67 66 65 64 64 64 64 64 63 62 62 62 62 62 61 60 59 59 59 58 58 57 57 58 58 58 60
67 67 67 68 68 68 69 69 69 69 70 70 71 71 72 72 73 73 73 74 74 75 76 76 75 74 75 75 76 77 76 74 72 71 70 69 69 67 66 65 64 64 65 65 64 64 63 62 62 63 62 62 61 60 60 60 59 59 59 59 59 60 61
66 66 66 66 67 67 68 68 68 69 69 70 71 71 72 72 73 73 73 74 75 76 76 76 75 75 76 77 78 78 76 74 73 72 71 70 70 68 67 66 65 64 65 65 65 65 65 64 64 64 64 64 64 64 64 63 63 62 62 61 62 63 63
65 65 65 65 65 66 66 67 67 68 69 70 71 71 72 72 72 73 74 75 76 76 76 76 76 77 78 79 79 78 76 74 73 72 71 70 69 68 67 66 66 65 65 66 66 67 67 67 67 67 67 66 66 66 66 66 66 65 65 65 65 66 66
64 64 64 64 64 65 65 66 67 68 69 70 70 71 72 72 73 74 75 76 77 77 77 78 78 78 79 80 79 78 75 74 72 71 71 70 69 68 68 67 67 67 67 67 68 69 69 69 70 70 69 68 67 66 65 65 65 65 65 65 66 67 68
63 62 62 63 63 64 65 65 66 67 68 69 70 71 72 72 73 74 76 77 77 78 78 78 79 79 80 80 79 76 74 72 72 71 70 69 68 68 68 68 68 69 69 69 70 70 70 70 70 69 69 69 67 66 65 63 61 61 62 63 64 66 67
62 62 62 62 63 63 64 65 66 67 68 69 70 71 72 73 74 75 77 78 78 79 79 79 79 80 80 79 77 75 73 72 71 70 69 68 68 69 69 69 70 70 70 70 69 69 69 68 68 68 68 67 66 65 64 63 61 59 58 58 59 62 64
61 61 61 62 62 63 64 65 66 67 68 68 69 70 72 73 74 76 78 79 79 79 79 79 80 80 79 77 75 73 72 71 70 69 68 68 69 69 70 71 72 71 70 69 68 68 68 67 66 66 65 64 64 63 62 61 60 58 56 55 54 56 59
60 61 61 62 62 63 64 65 66 66 67 68 69 70 71 73 75 77 79 80 80 80 79 79 79 78 77 75 73 72 71 70 69 69 68 69 70 71 71 71 71 71 70 69 68 67 66 64 63 62 62 61 61 60 60 59 57 56 54 52 51 51 52
60 61 62 62 62 63 63 64 65 65 66 68 69 70 72 74 76 78 79 80 80 79 79 78 78 77 75 73 71 71 70 69 69 69 69 70 71 72 72 71 70 70 69 68 66 65 63 61 60 59 59 60 60 60 59 58 56 54 52 49 47 46 46
61 61 61 61 62 62 63 63 64 65 67 68 70 71 73 75 77 78 79 80 80 79 78 77 76 75 73 71 71 70 69 69 69 70 71 72 73 73 72 71 70 69 68 66 64 62 61 60 59 58 59 59 60 60 59 59 58 55 52 48 46 44 43
60 61 60 61 61 61 62 63 65 66 67 69 71 73 75 77 78 78 79 79 79 78 77 76 75 73 71 70 70 69 69 69 70 71 73 73 73 72 71 71 70 68 66 64 62 61 60 59 59 58 58 59 59 59 60 60 59 58 55 52 48 46 44
59 59 59 59 60 61 62 63 65 67 68 70 72 74 76 77 78 78 79 79 79 78 77 75 73 71 70 70 69 69 70 71 72 73 74 73 72 71 71 70 69 67 64 62 61 60 59 59 58 58 58 58 58 58 58 57 56 55 54 52 49 47 45
58 58 59 59 60 61 63 64 66 68 69 71 73 75 77 78 78 79 79 79 79 78 76 74 71 70 69 69 69 70 71 73 74 74 74 73 72 72 71 69 67 64 62 61 60 60 59 58 57 57 56 56 55 54 53 52 51 50 48 46 45 44 43
58 58 59 59 60 62 64 65 67 69 70 72 74 75 77 78 79 79 79 79 78 77 75 72 70 69 69 69 70 71 72 74 75 74 73 72 72 71 69 66 64 62 61 60 59 58 57 56 55 55 54 53 52 49 48 47 46 46 44 42 41 40 39
58 59 59 60 61 63 65 66 68 70 71 73 74 75 77 78 79 79 79 79 78 76 73 70 69 68 68 69 70 71 73 74 74 73 72 72 71 69 66 63 62 61 60 58 57 56 55 54 53 52 52 52 51 48 46 45 44 43 42 41 39 38 36
59 60 61 62 64 65 66 68 69 71 72 73 74 76 77 78 79 79 79 78 77 74 71 68 68 68 68 69 70 71 72 72 71 71 71 70 69 66 63 61 60 59 58 57 55 54 53 52 51 51 51 50 50 48 45 43 42 41 40 39 37 36 34
61 62 63 64 66 66 67 69 70 71 73 74 75 76 78 78 79 79 78 78 76 72 69 68 67 68 68 69 70 71 71 71 70 70 70 68 66 63 61 59 58 57 56 54 53 52 51 51 50 50 50 49 48 46 44 42 40 38 37 36 35 33 32
Wind_Direction
256 262 268 273 278 283 286 288 291 293 295 296 297 298 297 297 297 297 297 298 299 300 301 303 305 307 309 310 311 312 312 312 312 311 311 310 309 308 307 305 302 300 296 293 291 289 287 286 285 282 275 270 267 267 265 263 260 257 257 256 255 255 254
261 266 271 276 280 283 285 288 291 293 294 295 296 296 296 297 296 297 298 299 300 301 303 305 306 308 309 310 311 311 311 311 311 310 310 309 308 307 306 304 302 300 298 295 292 289 286 283 282 282 281 275 268 264 261 261 260 257 255 255 255 253 252
266 270 274 278 281 283 286 288 291 292 293 294 294 295 296 296 296 297 299 300 301 302 304 305 307 308 309 310 310 311 311 310 310 309 309 308 307 305 304 303 302 300 299 297 294 290 287 282 279 278 279 278 275 269 261 257 257 256 255 253 254 253 251
272 275 278 281 283 285 287 289 291 292 292 293 294 295 295 295 296 297 299 300 301 303 304 305 307 308 309 310 310 310 310 309 309 309 308 307 306 304 303 302 300 299 298 297 295 293 289 285 281 277 275 275 274 273 269 262 256 254 253 252 252 252 251
274 277 279 281 283 285 287 289 290 291 292 293 294 294 294 295 296 297 299 300 302 303 305 306 307 308 309 309 309 309 309 309 308 308 307 306 305 303 302 301 300 299 298 297 295 294 292 288 284 280 277 274 271 271 270 268 263 257 252 249 248 249 249
274 276 278 280 283 284 286 288 289 290 291 292 292 293 294 295 296 298 300 301 303 304 306 307 307 308 308 308 309 309 309 308 308 307 307 305 304 303 302 301 299 298 297 296 295 294 292 289 287 283 279 276 272 271 270 268 266 263 258 251 247 245 245
274 276 278 281 283 284 286 287 288 289 290 291 292 293 294 296 298 299 301 302 304 305 306 307 307 307 308 309 309 309 308 308 308 307 306 305 304 303 302 301 300 299 298 296 295 294 292 289 286 284 281 277 274 271 270 269 267 265 263 257 249 244 243
274 276 278 280 282 284 285 287 288 289 289 291 292 294 296 297 299 300 302 303 304 305 306 306 307 308 308 308 308 308 308 307 307 306 305 304 303 302 302 301 300 299 298 297 296 294 292 289 286 283 279 276 274 271 269 269 267 266 265 262 256 247 242
273 275 278 280 282 284 285 286 287 288 290 292 293 295 297 298 300 301 302 303 304 305 305 306 307 308 308 308 308 307 307 306 306 305 304 303 303 302 301 300 300 299 298 297 296 294 292 290 287 283 279 274 271 269 269 268 267 266 264 263 262 254 244
272 275 277 279 281 283 284 286 287 289 291 292 294 296 297 299 300 301 302 303 303 304 306 307 307 307 307 307 307 306 306 305 305 304 304 303 302 302 301 300 300 299 298 297 296 295 293 291 288 285 281 276 271 266 265 266 267 267 264 262 261 259 253
271 274 276 278 280 282 284 286 288 290 292 293 295 296 298 299 300 301 302 302 303 305 306 307 307 307 306 306 306 305 305 305 305 304 304 303 302 302 301 301 300 299 299 297 296 295 293 291 289 286 283 280 276 270 264 261 263 266 265 263 261 259 257
272 274 276 278 280 282 285 287 289 291 293 294 296 297 298 299 300 300 301 302 304 305 306 306 306 306 306 305 305 305 305 305 305 304 303 303 302 302 301 300 300 299 298 297 296 295 293 292 290 288 286 283 280 277 271 265 261 262 263 262 262 260 257
273 276 278 280 282 284 286 289 290 292 294 295 296 297 297 298 299 300 301 303 304 305 306 306 306 306 305 305 305 305 305 305 305 304 303 303 302 301 301 300 299 299 298 297 296 294 293 292 290 289 287 285 283 280 276 271 265 262 262 260 259 260 259
275 278 280 282 284 286 288 290 291 292 294 294 295 296 297 298 299 300 302 304 304 305 306 306 306 305 305 304 304 305 305 305 305 304 304 303 302 301 300 299 299 298 297 296 295 294 292 291 290 288 287 285 284 281 278 275 269 264 263 261 258 257 258
278 280 282 284 286 287 288 290 291 292 293 294 295 295 296 298 300 301 303 304 305 305 306 306 305 305 304 304 305 306 307 307 306 305 304 303 302 301 300 299 299 298 297 295 294 293 291 290 289 288 287 285 284 282 280 277 273 268 264 263 261 257 256
280 282 283 285 286 287 288 290 291 291 292 293 294 295 297 299 301 302 303 304 305 305 305 305 305 305 304 304 305 307 308 308 307 306 305 303 302 301 301 300 299 298 297 296 294 293 291 290 289 288 287 285 284 283 281 278 275 272 267 264 263 260 256
281 282 283 284 285 287 288 289 289 290 291 293 294 296 298 300 302 303 304 304 304 305 305 305 305 305 304 304 305 307 308 308 308 306 305 304 303 303 302 301 300 298 297 295 294 293 292 290 289 288 287 286 284 283 281 279 276 273 269 266 265 262 258
280 281 282 283 284 285 287 288 289 290 292 294 296 298 300 301 302 303 303 304 304 304 305 305 305 304 304 305 306 308 309 310 309 308 307 307 306 304 303 301 300 299 298 296 295 294 293 292 290 289 288 286 285 283 281 279 276 273 270 266 264 263 261
279 280 282 283 284 286 287 288 290 291 293 295 297 299 300 301 302 302 303 303 304 304 304 305 305 305 306 307 309 311 312 312 311 310 309 308 307 306 304 303 301 300 298 297 295 294 293 291 290 289 287 286 285 283 281 279 276 273 270 267 263 262 261
280 281 283 284 286 287 288 290 291 293 295 297 298 299 300 301 302 302 303 303 304 305 305 306 306 307 308 310 311 312 313 312 311 310 309 309 308 307 305 304 302 300 299 297 296 294 293 292 291 289 288 286 284 283 280 278 276 273 270 267 264 261 260
281 283 284 286 287 289 290 292 293 295 296 298 299 300 301 301 302 302 303 304 305 306 306 307 307 308 310 311 312 313 313 312 311 310 310 309 308 307 305 304 302 301 300 299 298 297 295 294 292 291 289 288 286 283 281 279 276 274 270 267 265 262 260
282 284 285 287 289 290 292 293 295 296 297 298 299 300 301 301 302 303 304 304 305 306 307 307 308 309 311 312 313 314 313 313 312 310 309 308 307 306 305 304 303 302 301 300 299 298 297 295 293 292 290 289 287 285 283 281 278 275 272 269 266 263 260
283 285 287 289 290 292 293 295 296 297 298 299 299 300 301 302 303 304 304 305 306 307 308 309 310 311 312 313 314 314 313 312 310 309 308 308 307 306 306 305 305 304 303 302 301 300 298 297 295 293 291 289 287 285 283 282 280 277 274 271 268 265 262
285 287 288 290 291 293 294 295 296 297 298 299 300 301 301 302 303 304 305 306 307 308 309 310 311 312 313 314 314 313 312 310 310 309 309 308 308 308 308 307 307 306 305 304 303 302 300 299 297 296 294 292 290 287 285 282 280 278 275 273 270 266 263
286 288 289 291 292 293 294 295 296 297 298 299 300 301 302 303 304 305 306 307 308 309 310 311 311 312 313 313 312 311 311 310 310 310 309 309 309 309 309 308 308 307 306 305 304 303 302 301 299 298 297 295 293 291 288 285 282 278 276 273 271 268 265
287 288 290 291 292 293 294 295 296 297 298 300 301 302 303 304 305 306 308 309 309 310 310 311 311 312 312 312 311 311 310 310 310 310 310 310 310 310 310 309 309 308 307 307 306 305 304 302 301 300 299 298 296 294 292 289 286 282 277 273 271 268 266
287 288 289 291 292 293 294 295 296 297 299 300 301 302 303 304 306 308 309 309 309 310 310 310 311 311 311 311 311 311 311 311 311 311 311 311 311 311 311 311 310 310 309 308 307 306 305 304 303 302 301 300 299 297 295 292 290 287 283 278 274 270 267
287 288 289 291 292 293 294 295 296 298 299 300 301 302 304 305 307 308 309 309 309 310 310 310 311 311 311 311 311 311 311 311 312 312 312 312 312 312 312 312 312 311 310 309 308 308 307 306 305 305 304 303 301 299 297 295 293 291 288 284 280 275 271
287 288 289 291 292 293 294 295 296 298 299 300 301 302 304 306 307 308 309 309 309 310 310 311 311 311 312 311 311 311 312 312 313 313 313 314 314 314 314 313 312 312 311 311 310 310 309 308 308 308 307 306 305 303 302 300 298 296 292 289 285 280 275
287 288 289 291 292 293 294 295 297 298 299 300 301 303 304 306 307 308 309 309 310 310 311 311 312 312 312 311 312 312 313 313 314 315 315 316 316 315 315 314 313 313 313 313 312 312 312 312 312 312 311 310 308 307 306 305 304 301 299 296 293 288 282
287 288 289 290 291 293 294 295 297 298 299 300 301 303 304 306 307 308 309 310 310 311 311 312 312 312 312 312 313 314 315 315 316 316 317 317 316 316 315 315 315 315 315 315 315 315 315 315 315 315 313 311 310 309 308 306 305 304 302 301 298 294 289
287 288 289 290 291 293 294 296 297 298 299 300 301 303 304 306 307 309 309 310 311 312 312 312 313 312 313 313 315 316 317 317 317 318 318 317 317 317 317 317 317 317 317 317 317 317 317 317 317 316 314 312 309 308 307 305 303 302 301 300 299 296 292
288 288 289 291 292 293 295 296 297 298 299 300 302 303 304 306 307 309 310 310 311 312 313 313 313 313 314 316 317 318 318 318 318 318 318 318 318 318 318 318 318 318 318 318 319 319 319 319 318 316 313 310 308 307 306 305 303 302 301 300 298 296 293
288 289 290 292 293 293 294 295 296 297 299 300 302 303 304 306 307 309 310 311 312 313 313 313 314 314 316 318 319 319 319 318 319 319 319 319 319 319 319 319 319 319 319 319 320 320 319 319 317 315 312 311 310 310 310 309 308 306 305 303 301 298 294
289 290 291 291 292 293 294 295 296 297 299 300 302 303 304 306 307 309 310 311 312 313 313 313 314 316 318 319 319 319 318 318 319 319 320 320 320 320 320 320 319 319 320 320 320 320 320 319 318 317 316 316 316 316 316 314 313 311 309 307 304 302 299
288 289 290 290 291 292 293 295 296 297 299 300 301 303 304 306 308 309 310 311 313 313 313 314 315 317 318 319 318 318 318 318 319 320 320 320 320 320 320 320 320 320 320 321 321 320 320 321 321 321 321 321 321 321 320 318 315 313 310 308 306 304 302
288 288 289 290 291 292 293 295 296 297 299 300 301 303 304 306 308 309 310 312 313 313 313 315 316 318 318 318 318 318 319 319 320 321 321 321 321 320 320 320 320 320 320 321 321 322 324 325 325 325 325 325 324 323 321 319 317 314 311 309 306 304 302
Height
10737 10736 10735 10734 10732 10730 10728 10726 10725 10723 10722 10720 10719 10718 10717 10716 10715 10714 10713 10712 10710 10708 10707 10705 10703 10701 10698 10695 10692 10688 10685 10681 10677 10673 10669 10665 10662 10660 10659 10658 10657 10656 10656 10655 10654 10653 10651 10646 10641 10642 10644 10644 10643 10642 10641 10640 10639 10639 10639 10640 10641 10642 10644
10733 10732 10730 10729 10727 10725 10723 10721 10720 10718 10717 10715 10714 10713 10711 10710 10709 10708 10706 10705 10703 10702 10700 10698 10696 10693 10690 10687 10684 10681 10677 10674 10670 10666 10662 10659 10655 10652 10650 10649 10648 10647 10647 10647 10647 10646 10646 10644 10639 10634 10634 10635 10635 10635 10636 10634 10633 10633 10633 10634 10634 10636 10639
10729 10727 10725 10723 10721 10720 10718 10716 10715 10714 10712 10711 10709 10707 10706 10705 10704 10702 10700 10699 10697 10695 10693 10691 10689 10686 10682 10679 10676 10673 10669 10666 10662 10658 10655 10652 10649 10646 10644 10641 10640 10639 10638 10638 10638 10638 10638 10639 10637 10632 10629 10627 10626 10625 10627 10628 10627 10626 10627 10627 10628 10630 10632
10723 10721 10719 10717 10716 10714 10713 10711 10710 10708 10707 10705 10704 10702 10701 10700 10699 10697 10695 10693 10691 10689 10686 10684 10681 10678 10675 10671 10668 10665 10661 10658 10654 10651 10647 10644 10642 10639 10637 10635 10633 10632 10630 10630 10629 10629 10630 10630 10630 10628 10625 10623 10620 10617 10617 10619 10620 10620 10620 10621 10622 10624 10625
10717 10715 10714 10712 10711 10710 10708 10706 10705 10703 10701 10700 10698 10697 10697 10696 10694 10692 10690 10687 10685 10682 10680 10677 10674 10671 10667 10664 10661 10657 10653 10650 10646 10643 10640 10637 10634 10632 10630 10628 10626 10625 10623 10623 10621 10621 10621 10621 10621 10621 10620 10618 10616 10612 10610 10610 10610 10611 10613 10615 10616 10617 10618
10713 10711 10709 10708 10706 10705 10703 10701 10700 10698 10696 10695 10694 10693 10692 10691 10689 10686 10684 10681 10679 10676 10673 10670 10667 10664 10660 10656 10653 10649 10645 10641 10638 10634 10632 10629 10626 10624 10622 10620 10619 10617 10616 10615 10614 10613 10613 10612 10613 10612 10612 10612 10610 10606 10604 10603 10602 10602 10604 10607 10609 10610 10611
10708 10706 10705 10703 10701 10700 10698 10696 10695 10693 10692 10691 10690 10688 10687 10685 10683 10681 10678 10675 10672 10669 10666 10663 10660 10656 10653 10649 10645 10641 10637 10633 10630 10627 10624 10621 10619 10616 10614 10612 10611 10609 10608 10607 10606 10605 10605 10605 10604 10604 10604 10603 10603 10601 10597 10595 10594 10594 10595 10597 10600 10602 10603
10702 10701 10700 10698 10696 10695 10693 10692 10690 10689 10688 10687 10685 10683 10681 10679 10677 10675 10672 10669 10666 10663 10660 10657 10653 10649 10645 10641 10637 10633 10630 10626 10623 10620 10617 10614 10611 10609 10607 10605 10603 10601 10599 10599 10597 10597 10596 10596 10596 10596 10596 10596 10595 10593 10591 10588 10586 10586 10587 10588 10589 10593 10595
10697 10696 10695 10693 10691 10690 10688 10687 10686 10685 10684 10682 10680 10678 10676 10674 10672 10669 10666 10663 10660 10657 10654 10650 10646 10642 10638 10634 10630 10626 10623 10620 10616 10613 10610 10607 10604 10602 10599 10597 10595 10593 10591 10590 10589 10588 10587 10587 10587 10587 10588 10588 10588 10586 10584 10581 10578 10577 10579 10579 10579 10581 10585
10692 10691 10690 10689 10687 10685 10684 10683 10682 10680 10679 10677 10675 10673 10671 10668 10666 10663 10660 10658 10655 10651 10648 10644 10640 10636 10632 10628 10624 10620 10616 10613 10610 10606 10603 10600 10597 10594 10591 10589 10587 10585 10583 10582 10580 10579 10578 10577 10577 10577 10577 10578 10579 10580 10578 10575 10570 10568 10570 10571 10570 10570 10573
10687 10687 10686 10684 10683 10681 10680 10679 10677 10676 10673 10671 10670 10667 10665 10663 10660 10657 10654 10651 10648 10645 10641 10637 10633 10629 10625 10621 10617 10613 10610 10606 10602 10599 10595 10592 10589 10586 10583 10581 10579 10577 10575 10573 10571 10570 10569 10568 10567 10567 10567 10567 10568 10570 10571 10570 10565 10560 10560 10562 10561 10560 10562
10683 10682 10681 10679 10678 10677 10675 10674 10672 10670 10668 10666 10664 10662 10659 10657 10654 10651 10648 10645 10642 10638 10635 10631 10626 10622 10618 10614 10610 10606 10603 10599 10595 10592 10588 10585 10581 10578 10575 10572 10570 10568 10566 10565 10563 10561 10560 10559 10558 10557 10557 10557 10558 10559 10560 10562 10561 10554 10551 10553 10551 10550 10552
10678 10677 10676 10674 10673 10672 10670 10669 10667 10665 10663 10661 10658 10656 10653 10651 10648 10645 10642 10639 10635 10632 10628 10624 10620 10615 10611 10607 10603 10600 10596 10592 10588 10584 10581 10577 10574 10571 10567 10564 10562 10560 10558 10556 10554 10552 10551 10549 10548 10548 10547 10546 10546 10548 10548 10551 10553 10548 10543 10544 10544 10541 10540
10674 10672 10671 10669 10668 10667 10665 10663 10661 10660 10658 10655 10653 10650 10648 10645 10642 10639 10636 10632 10628 10625 10621 10617 10613 10609 10605 10601 10596 10592 10588 10584 10580 10577 10573 10569 10566 10562 10559 10556 10553 10551 10549 10547 10545 10543 10541 10540 10538 10537 10537 10536 10535 10536 10537 10538 10541 10541 10536 10533 10535 10534 10531
10669 10668 10666 10664 10663 10661 10659 10658 10656 10654 10652 10650 10647 10644 10642 10639 10636 10632 10629 10625 10621 10618 10614 10610 10606 10601 10597 10593 10589 10585 10581 10576 10572 10568 10565 10561 10557 10554 10550 10547 10544 10541 10539 10537 10535 10533 10532 10530 10528 10527 10526 10525 10524 10523 10524 10526 10527 10530 10528 10523 10522 10524 10523
10664 10662 10660 10659 10657 10656 10654 10653 10651 10649 10646 10644 10641 10638 10635 10632 10629 10625 10622 10618 10614 10610 10607 10602 10598 10594 10590 10586 10581 10577 10573 10569 10564 10560 10556 10552 10549 10545 10542 10538 10535 10532 10529 10527 10525 10523 10522 10520 10518 10517 10515 10514 10513 10512 10512 10513 10514 10516 10517 10514 10511 10511 10512
10657 10656 10655 10654 10652 10651 10649 10647 10645 10643 10641 10638 10635 10632 10629 10625 10622 10618 10615 10611 10607 10603 10599 10595 10591 10586 10582 10578 10574 10570 10566 10561 10556 10552 10548 10544 10540 10537 10534 10530 10526 10523 10520 10517 10515 10512 10511 10509 10507 10506 10505 10503 10502 10501 10499 10500 10501 10502 10504 10503 10500 10498 10499
10652 10651 10649 10648 10647 10646 10644 10642 10640 10637 10634 10632 10628 10625 10622 10618 10615 10612 10608 10605 10601 10596 10592 10588 10583 10579 10574 10570 10566 10561 10557 10552 10547 10543 10539 10535 10532 10528 10524 10521 10517 10514 10510 10507 10505 10503 10500 10498 10496 10495 10493 10492 10490 10489 10488 10487 10487 10488 10489 10490 10489 10486 10485
10646 10645 10644 10643 10641 10640 10638 10635 10633 10630 10627 10624 10621 10618 10615 10612 10608 10605 10601 10597 10593 10589 10585 10580 10575 10571 10566 10561 10557 10552 10547 10543 10538 10534 10530 10526 10523 10519 10515 10512 10508 10504 10501 10498 10495 10493 10491 10488 10485 10483 10482 10481 10479 10477 10476 10475 10474 10475 10475 10475 10476 10474 10472
10640 10639 10638 10637 10635 10633 10631 10628 10625 10623 10620 10617 10614 10611 10608 10604 10601 10598 10594 10590 10585 10581 10576 10571 10567 10562 10558 10553 10548 10543 10539 10534 10530 10525 10521 10517 10514 10510 10506 10503 10499 10495 10491 10487 10485 10483 10481 10477 10474 10472 10470 10469 10467 10466 10464 10463 10462 10462 10462 10462 10461 10461 10460
10633 10632 10631 10630 10628 10626 10623 10621 10618 10615 10613 10610 10607 10604 10601 10597 10594 10590 10586 10582 10578 10573 10568 10564 10559 10554 10550 10545 10540 10535 10531 10526 10521 10517 10512 10508 10504 10501 10498 10494 10490 10486 10481 10477 10473 10471 10469 10466 10463 10460 10457 10456 10454 10453 10451 10450 10450 10449 10449 10449 10448 10447 10447
10627 10626 10625 10623 10621 10619 10616 10614 10611 10608 10605 10602 10599 10596 10593 10590 10586 10582 10578 10574 10570 10566 10561 10556 10552 10547 10542 10537 10532 10527 10522 10518 10513 10508 10504 10500 10495 10492 10488 10485 10481 10477 10472 10467 10462 10459 10457 10454 10452 10449 10446 10443 10441 10439 10438 10436 10436 10435 10435 10435 10434 10433 10433
10620 10620 10618 10617 10614 10612 10609 10607 10604 10601 10598 10595 10592 10589 10586 10582 10579 10575 10571 10567 10563 10558 10553 10548 10543 10538 10534 10529 10524 10519 10514 10510 10505 10501 10496 10492 10487 10482 10478 10475 10471 10467 10463 10457 10452 10448 10445 10442 10439 10436 10433 10431 10429 10427 10425 10423 10421 10420 10420 10420 10419 10418 10418
10614 10613 10612 10610 10607 10605 10602 10600 10597 10594 10591 10588 10585 10582 10579 10575 10572 10568 10563 10559 10555 10550 10545 10540 10535 10530 10525 10521 10516 10512 10507 10503 10498 10493 10488 10483 10479 10474 10469 10465 10461 10457 10453 10448 10443 10438 10433 10429 10425 10421 10418 10415 10413 10412 10411 10409 10407 10406 10405 10404 10403 10401 10402
10607 10606 10605 10603 10601 10598 10596 10594 10591 10588 10585 10582 10578 10575 10572 10568 10564 10561 10556 10552 10547 10542 10538 10533 10528 10523 10518 10514 10509 10504 10500 10496 10491 10486 10481 10476 10471 10466 10461 10456 10451 10448 10443 10439 10434 10428 10423 10418 10413 10409 10404 10400 10398 10395 10394 10393 10393 10392 10391 10389 10388 10386 10385
10601 10600 10598 10596 10594 10592 10590 10587 10584 10581 10578 10575 10572 10569 10565 10561 10558 10554 10550 10545 10540 10535 10531 10526 10521 10517 10512 10507 10502 10497 10493 10488 10483 10479 10474 10469 10463 10458 10453 10448 10442 10438 10433 10429 10424 10418 10413 10408 10403 10397 10393 10388 10384 10380 10377 10376 10376 10376 10376 10376 10375 10373 10371
10595 10593 10592 10590 10588 10586 10583 10581 10578 10575 10572 10569 10566 10562 10559 10555 10551 10547 10543 10538 10534 10529 10524 10520 10515 10510 10505 10500 10495 10490 10485 10480 10476 10471 10466 10461 10455 10450 10445 10440 10433 10428 10423 10419 10414 10409 10403 10398 10393 10388 10382 10377 10372 10368 10365 10362 10360 10360 10360 10361 10362 10361 10358
10589 10587 10585 10584 10582 10579 10577 10574 10572 10569 10566 10563 10560 10556 10553 10549 10544 10540 10536 10531 10527 10523 10518 10513 10508 10503 10498 10493 10487 10483 10478 10473 10468 10464 10458 10453 10447 10442 10437 10431 10425 10419 10414 10409 10404 10399 10394 10389 10384 10379 10373 10367 10362 10357 10354 10351 10349 10347 10346 10346 10347 10347 10346
10582 10580 10579 10577 10575 10573 10570 10568 10565 10562 10560 10556 10553 10550 10546 10542 10538 10533 10529 10524 10520 10516 10511 10506 10501 10496 10490 10485 10480 10476 10471 10466 10461 10456 10451 10445 10439 10433 10427 10422 10417 10411 10405 10400 10395 10390 10385 10380 10375 10370 10364 10357 10352 10347 10343 10340 10337 10336 10334 10334 10334 10334 10334
10576 10574 10572 10570 10568 10566 10564 10561 10558 10556 10553 10550 10547 10543 10539 10535 10531 10527 10522 10517 10513 10509 10504 10499 10494 10489 10484 10478 10473 10469 10464 10458 10453 10448 10442 10437 10431 10425 10418 10412 10408 10402 10397 10391 10386 10381 10376 10370 10366 10361 10355 10349 10343 10338 10333 10329 10325 10323 10322 10322 10323 10322 10322
10570 10568 10566 10564 10562 10559 10557 10555 10552 10549 10546 10543 10540 10537 10533 10529 10525 10520 10515 10510 10506 10502 10497 10492 10487 10482 10476 10471 10466 10461 10456 10450 10445 10439 10434 10428 10423 10417 10411 10404 10398 10393 10388 10382 10377 10372 10368 10363 10358 10353 10348 10341 10336 10331 10326 10321 10317 10313 10311 10311 10311 10310 10310
10563 10562 10560 10557 10555 10553 10550 10548 10545 10542 10540 10537 10533 10530 10526 10522 10518 10514 10509 10504 10500 10495 10490 10485 10480 10475 10469 10464 10458 10453 10448 10442 10437 10431 10426 10420 10414 10408 10402 10396 10390 10385 10380 10375 10370 10365 10360 10356 10351 10346 10341 10335 10330 10325 10320 10315 10311 10307 10304 10302 10301 10300 10299
10557 10555 10553 10551 10549 10546 10544 10541 10538 10536 10533 10530 10527 10523 10520 10516 10512 10507 10502 10497 10492 10488 10483 10478 10473 10468 10462 10457 10451 10445 10440 10434 10429 10424 10418 10412 10406 10400 10394 10388 10383 10378 10373 10368 10363 10358 10353 10349 10344 10339 10334 10329 10325 10320 10315 10309 10305 10301 10298 10296 10294 10292 10290
10550 10548 10546 10544 10542 10539 10537 10534 10532 10529 10526 10524 10521 10517 10513 10509 10505 10501 10496 10491 10486 10481 10476 10471 10466 10461 10456 10450 10445 10439 10433 10427 10422 10416 10411 10405 10399 10393 10387 10382 10376 10371 10367 10362 10357 10353 10348 10343 10339 10333 10328 10322 10318 10314 10309 10303 10299 10295 10292 10289 10287 10285 10284
10544 10542 10539 10537 10535 10533 10530 10528 10525 10523 10520 10517 10514 10510 10507 10503 10499 10494 10489 10485 10480 10475 10470 10465 10460 10455 10449 10444 10439 10434 10428 10422 10416 10410 10405 10399 10392 10387 10381 10376 10371 10365 10361 10357 10353 10348 10343 10339 10333 10327 10321 10315 10310 10306 10302 10298 10293 10289 10286 10283 10281 10279 10278
10537 10535 10533 10531 10528 10526 10524 10521 10519 10516 10513 10511 10507 10504 10500 10496 10492 10488 10483 10478 10473 10468 10464 10459 10454 10449 10444 10439 10434 10429 10423 10418 10412 10405 10399 10393 10387 10381 10376 10371 10366 10361 10356 10352 10348 10344 10339 10334 10328 10322 10315 10310 10304 10300 10296 10292 10288 10285 10281 10278 10276 10275 10273
10530 10528 10527 10524 10522 10520 10517 10514 10512 10509 10507 10504 10501 10497 10494 10490 10486 10481 10477 10472 10467 10461 10457 10453 10448 10444 10439 10434 10428 10423 10418 10412 10406 10400 10394 10387 10381 10376 10371 10366 10361 10357 10352 10348 10344 10339 10334 10328 10323 10317 10311 10306 10300 10296 10292 10288 10284 10281 10277 10274 10272 10270 10269